Delta, CO

2:13 PM MST on November 24, 2017 (GMT -0700)
Delta

Weather History for KAJZ - August, 2012

Change the Weather History Date:

Friday, August 10, 2012

  Actual Average (KMTJ) Record (KMTJ)
Temperature  
Mean Temperature 80 °F -  
Max Temperature 96 °F 85 °F 95 °F (2003)
Min Temperature 64 °F 53 °F 50 °F (2002)
Cooling Degree Days 15    
Growing Degree Days 30 (Base 50)    
Moisture  
Dew Point 48 °F    
Average Humidity 38    
Maximum Humidity 58    
Minimum Humidity 14    
Precipitation  
Precipitation 0.00 in - - ()
Sea Level Pressure  
Sea Level Pressure 30.18 in    
Wind  
Wind Speed 4 mph ()    
Max Wind Speed 21 mph    
Max Gust Speed 32 mph    
Visibility 8.6 miles    
Events Thunderstorm    
Averages and records for this station are not official NWS values.
T = Trace of Precipitation, MM = Missing Value Source: Averaged Metar Reports

Daily Weather History Graph

Daily Weather History Graph

Search for Another Location

Airport or City:

Trip Planner

Search our weather history database for the weather conditions in past years. The results will help you decide how hot, cold, wet, or windy it might be!

Date:

Astronomy

Aug. 10, 2012 Rise Set
Actual Time 6:21 AM MDT 8:12 PM MDT
Civil Twilight 5:53 AM MDT 8:41 PM MDT
Nautical Twilight 5:18 AM MDT 9:15 PM MDT
Astronomical Twilight 4:40 AM MDT 9:53 PM MDT
Moon 12:13 AM MDT (8/10) 2:54 PM MDT (8/10)
Length of Visible Light 14h 47m
Length of Day
13h 50m
Last Quarter, 41% of the Moon is Illuminated
Aug 10
Last Quarter
Aug 17
New
Aug 24
First Quarter
Aug 31
Full
Sep 8
Last Quarter

Hourly Weather History & Observations

Time (MDT) Temp. Dew Point Humidity Pressure Visibility Wind Dir Wind Speed Gust Speed Precip Events Conditions
12:15 AM 73.8 °F 50.4 °F 44% 30.27 in 10.0 mi NNE 3.5 mph - N/A   Clear
1:15 AM 71.2 °F 50.9 °F 49% 30.26 in 7.0 mi East 5.8 mph - N/A   Clear
2:15 AM 70.7 °F 48.9 °F 46% 30.25 in 7.0 mi Calm Calm - N/A   Clear
2:35 AM 69.8 °F 49.6 °F 49% 30.25 in 7.0 mi NE 3.5 mph - N/A   Clear
2:55 AM 70.7 °F 48.2 °F 45% 30.25 in 7.0 mi Calm Calm - N/A   Clear
3:35 AM 69.8 °F 48.0 °F 46% 30.25 in 10.0 mi Calm Calm - N/A   Clear
3:55 AM 68.0 °F 48.6 °F 50% 30.23 in 7.0 mi Calm Calm - N/A   Clear
4:15 AM 67.1 °F 48.6 °F 51% 30.24 in 7.0 mi Calm Calm - N/A   Clear
4:35 AM 66.9 °F 48.4 °F 51% 30.24 in 7.0 mi Calm Calm - N/A   Clear
5:15 AM 65.8 °F 47.8 °F 52% 30.24 in 10.0 mi Calm Calm - N/A   Clear
5:35 AM 64.9 °F 49.3 °F 57% 30.25 in 10.0 mi Calm Calm - N/A   Clear
6:35 AM 65.3 °F 48.6 °F 55% 30.26 in 7.0 mi Calm Calm - N/A   Clear
7:15 AM 68.5 °F 49.3 °F 50% 30.26 in 7.0 mi Calm Calm - N/A   Clear
7:35 AM 70.3 °F 48.6 °F 46% 30.27 in 10.0 mi Calm Calm - N/A   Clear
8:15 AM 70.7 °F 48.7 °F 46% 30.27 in 7.0 mi ENE 4.6 mph - N/A   Clear
8:35 AM 67.6 °F 52.5 °F 58% 30.28 in 7.0 mi ESE 3.5 mph - N/A   Clear
8:55 AM 70.0 °F 50.5 °F 50% 30.27 in 10.0 mi East 3.5 mph - N/A   Clear
9:15 AM 72.3 °F 48.0 °F 42% 30.27 in 10.0 mi Calm Calm - N/A   Clear
9:35 AM 73.8 °F 47.3 °F 39% 30.26 in 7.0 mi Calm Calm - N/A   Clear
9:55 AM 75.4 °F 46.8 °F 36% 30.26 in 7.0 mi Calm Calm - N/A   Clear
10:15 AM 77.4 °F 45.5 °F 32% 30.25 in 7.0 mi SE 3.5 mph - N/A   Clear
10:35 AM 77.9 °F 47.3 °F 34% 30.25 in 10.0 mi South 3.5 mph - N/A   Clear
11:15 AM 79.9 °F 46.4 °F 31% 30.25 in 10.0 mi South 4.6 mph - N/A   Clear
11:55 AM 81.3 °F 47.3 °F 30% 30.23 in 10.0 mi Calm Calm - N/A   Clear
12:15 PM 83.1 °F 46.4 °F 28% 30.22 in 7.0 mi Calm Calm - N/A   Clear
12:55 PM 87.6 °F 44.1 °F 22% 30.20 in 7.0 mi Calm Calm - N/A Thunderstorm Clear
1:15 PM 89.6 °F 43.3 °F 20% 30.19 in 10.0 mi ENE 8.1 mph - N/A   Clear
1:35 PM 90.7 °F 44.1 °F 20% 30.17 in 10.0 mi SE 4.6 mph - N/A   Clear
2:35 PM 93.4 °F 44.6 °F 19% 30.13 in 10.0 mi SE 5.8 mph - N/A   Clear
2:55 PM 95.2 °F 43.5 °F 17% 30.12 in 10.0 mi South 4.6 mph - N/A   Clear
3:15 PM 95.4 °F 43.7 °F 17% 30.11 in 10.0 mi ESE 6.9 mph - N/A   Clear
3:35 PM 95.0 °F 41.7 °F 16% 30.11 in 10.0 mi SSW 5.8 mph - N/A   Clear
3:55 PM 90.7 °F 45.5 °F 21% 30.11 in 7.0 mi SW 19.6 mph 27.6 mph N/A   Scattered Clouds
4:15 PM 90.7 °F 43.9 °F 20% 30.11 in 10.0 mi Calm Calm - N/A   Mostly Cloudy
4:35 PM 93.4 °F 42.8 °F 17% 30.10 in 10.0 mi SW 5.8 mph - N/A   Clear
4:55 PM 94.8 °F 41.4 °F 16% 30.08 in 7.0 mi WNW 9.2 mph - N/A   Clear
5:15 PM 96.1 °F 39.7 °F 14% 30.08 in 10.0 mi NW 6.9 mph - N/A   Clear
5:35 PM 95.4 °F 39.2 °F 14% 30.08 in 10.0 mi SW 8.1 mph - N/A   Clear
5:55 PM 93.7 °F 45.7 °F 19% 30.08 in 10.0 mi South 12.7 mph 17.3 mph N/A   Clear
6:15 PM 90.1 °F 44.4 °F 20% 30.07 in 10.0 mi SSE 10.4 mph - N/A   Clear
6:35 PM 89.6 °F 44.4 °F 21% 30.07 in 10.0 mi South 9.2 mph - N/A   Clear
6:55 PM 85.8 °F 45.3 °F 24% 30.08 in 7.0 mi South 19.6 mph 26.5 mph N/A Thunderstorm Scattered Clouds
7:15 PM 82.9 °F 51.1 °F 33% 30.11 in 4.0 mi WSW 9.2 mph 26.5 mph N/A Thunderstorm Thunderstorm
7:35 PM 75.6 °F 54.1 °F 47% 30.12 in 2.0 mi North 20.7 mph 32.2 mph N/A Thunderstorm Thunderstorm
7:55 PM 77.2 °F 54.1 °F 45% 30.12 in 10.0 mi North 10.4 mph 13.8 mph N/A Thunderstorm Mostly Cloudy
8:35 PM 79.5 °F 51.6 °F 38% 30.15 in 10.0 mi NNW 15.0 mph 25.3 mph N/A   Scattered Clouds
8:55 PM 77.0 °F 55.6 °F 47% 30.16 in 10.0 mi Calm Calm - N/A   Clear
9:15 PM 76.3 °F 54.3 °F 46% 30.17 in 10.0 mi ENE 9.2 mph - N/A   Clear
9:35 PM 75.4 °F 55.6 °F 50% 30.16 in 10.0 mi East 10.4 mph - N/A   Clear
9:55 PM 74.7 °F 53.2 °F 47% 30.16 in 10.0 mi ENE 5.8 mph - N/A   Clear
10:15 PM 72.1 °F 55.8 °F 56% 30.16 in 10.0 mi SE 6.9 mph - N/A   Clear
10:35 PM 72.0 °F 55.0 °F 55% 30.16 in 10.0 mi East 4.6 mph - N/A   Clear
10:55 PM 72.7 °F 55.2 °F 54% 30.18 in 10.0 mi NNE 5.8 mph - N/A   Clear
11:15 PM 71.8 °F 55.8 °F 57% 30.16 in 7.0 mi ENE 15.0 mph - N/A   Scattered Clouds
11:35 PM 72.5 °F 55.4 °F 55% 30.16 in 7.0 mi East 6.9 mph - N/A   Mostly Cloudy
11:55 PM 72.9 °F 54.9 °F 53% 30.16 in 10.0 mi NE 9.2 mph - N/A   Scattered Clouds